Погода в Секкезе

Иран     36°14′27″N   46°16′21″E
темп.,
°C
ветер,
м/с
пор.,
м/с
влажн.,
%
обл.,
%
осадки,
мм/ч
давл.,
гПа
погр.,
м
16 июня, ср
ср1601:30+19зюз22230 0.0 100711
04:30+16вюв00280 0.0 100711
07:30+21вюв11250 0.0 100812
10:30+28вюв35170 0.0 10061189
13:30+34ю2490 0.0 10033288
16:30+35юз8660 0.0 10013547
19:30+31зюз78100 0.0 1003983
22:30+20юз11230 0.0 100711
17 июня, чт
чт1701:30+18ююз22240 0.0 100711
04:30+16юз22260 0.0 100711
07:30+21юз22220 0.0 100823
10:30+29юз1290 0.0 10061091
13:30+34зюз4530 0.0 10042743
16:30+35зюз7740 0.0 10032610
19:30+30зюз5760 0.0 1005554
22:30+19юз22140 0.0 100911
18 июня, пт
пт1801:30+16юз11240 0.0 100811
04:30+14ююв11260 0.0 100811
07:30+20ссв11190 0.0 100911
10:30+28ссв3390 0.0 1008913
13:30+33ссз2390 0.0 10051948
16:30+37с6750 0.0 10033557
19:30+31с78170 0.0 1005614
22:30+20в11320 0.0 100911
19 июня, сб
сб1901:30+19св11350 0.0 100911
04:30+17св22380 0.0 101011
07:30+20ссв22320 0.0 101275
10:30+30в68160 0.0 10101333
13:30+35вюв88110 0.0 10072446
16:30+38в99857 0.0 10044639
19:30+35зсз67946 0.0 1005834
22:30+22всв11250 0.0 101013
20 июня, вс
вс2001:30+21в22290 0.0 101111
04:30+18в22350 0.0 101211
07:30+22св11280 0.0 101342
10:30+30вюв56150 0.0 10111207
13:30+36вюв5790 0.0 10083400
16:30+38юз6450 0.0 10054963
19:30+35зюз4650 0.0 1006435
22:30+23юв22180 0.0 101011